SL-16 DEB, 22451

Orbit data source: Space-Track

SL-16 DEB, 22451 is space debris in LEO originally from a launch on Fri, 25 Dec 1992 UTC launched from the Tyuratam Missile And Space Complex (TTMTR). Debris objects in space refer to the collection of defunct objects orbiting the Earth. Examples of debris include non-operational satellites, rocket bodies, and fragments generated from explosions, collisions, or faulty payload assembly.

Loading next visibility...
Identifier
22451, 1992-093EQ
Orbit
LEO
Country
Flag of CISCIS
Related business
Manufacturer
Unknown
Mission
Spacecraft
Bus & Motor
Unknown
Mass
Unknown
Launch date (UTC)
1992-12-25 (33 years ago)
Launch vehicle
Unknown
Launch site
Tyuratam Missile And Space Complex (TTMTR)
Object type
Payload
Rocket body
Debris
Shape & HBR
Unknown shape, 0.1 m
Radar Cross Section
Small (<0.1 m²)

Expand to show TLE details & history
Last TLE update: 18 hours ago

TLE from 18 hours ago
0 SL-16 DEB
1 22451U 92093EQ  25296.99170810  .00000125  00000-0  11883-3 0  9998
2 22451  71.1370 246.9887 0130107 170.4521 260.2198 13.94262900666766
Epoch: 2025-10-23T23:48Z
TLE epoch observation values (Epoch: 2025-10-23T23:48:03.579Z)
Latitude
62.31482°
Longitude
-102.29562°
Altitude
941.196 km
Speed
7.379 km/s
True Right ascension
19h 09m 26s
True Declination
62° 10' 36"
Sunlit
Object was in daylight at epoch
Visualization orbit readout
Latitude
Unknown
Longitude
Unknown
Altitude
Unknown
Speed
Unknown
Apparent Right ascension
Unknown
Apparent Declination
Unknown
Sunlit
N/A
Visualization observer readout
Local Sidereal Time
12:54:57
Azimuth
Unknown
Elevation
Unknown
Doppler factor
Unknown
Orbital elements
Apogee altitude
1,006.507 km
Perigee altitude
816.816 km
Semi-major axis
7,289.798 km
Eccentricity
0.01301
Inclination
71.137°
RAAN
246.9887°
Arg. of periapsis
170.4521°
True anomaly
258.75476°
Mean anomaly
260.2198°
Eccentric anomaly
259.48686°
Mean motion
3.48714 °/min
Orbital period
103.24 mins
BSTAR
0.00011883
Loading maneuver chart data...
Computing Atmospheric mass density...

Documentation

Showing up to 5 results
|